Location: ????? ???????
(25.7275°N, 32.5929°E)
Time: 10:46:31
(UTC+00:00)

USA 234 - Pass Details

Date: 02 March 2021
Orbit: 1102 x 1105 km, 123.0° (Epoch: 14 April)

Event Time Altitude Azimuth Distance (km) Brightness Sun altitude
Rises 16:51:22 0° 31° (NNE) 3,918 5.8 -14.2°
Reaches altitude 10° 16:53:58 10° 25° (NNE) 2,959 5.3 -14.8°
Maximum altitude 17:00:06 45° 315° (NW) 1,460 4.2 -16.1°
Drops below altitude 10° 17:06:14 10° 245° (WSW) 2,954 6.5 -17.5°
Sets 17:08:49 0° 239° (WSW) 3,910 7.2 -18.1°
